ロヴァシュ第2彗星

184P/Lovas 2 (2006)

English version
Home page
Total 6,336 html files since Dec. 4, 1995
Updated on April 21, 2007

---------------------------------------------------------------------

・ プロフィール

符号 184P/2007 A1
再発見日 2007年1月9日
再発見光度 16.8等
再発見者 R. A. Kowalski (Catalina Sky Survey)

・ 軌道要素

                    Epoch = 2006 Dec. 11.0 TT
     T = 2006 Dec. 12.4538 TT         Peri. =  77.4035
     e = 0.604101                     Node  = 278.3039  2000.0
     q = 1.395368 AU                  Incl. =   1.5532
       a =  3.524554 AU    n = 0.1489525    P =   6.62 years

・ 星図

・ 光度変化

        m1 = 14.5 + 5 logΔ + 10.0 log r

        ※ 灰色の曲線は、m1 = 11.0 + 5 logΔ + 15 log r の光度曲線です。

---------------------------------------------------------------------

軌道要素は Dr. Brian G. Marsden の計算によるもので、 IAUC 8792 に掲載されたものです。
星図は StellaNavigator Ver.2.0 for Windows (アストロアーツ 編著 / アスキー出版局刊) で作成したものです。
光度グラフはComet for Windowsで作成したものです。

---------------------------------------------------------------------

Copyright(C) 1995-2008 Seiichi Yoshida (comet@aerith.net). All rights reserved.